Home   Weather   Garland   Past weeks

Flag for USA Past Weather in Garland, Texas, USA — Yesterday and Last 2 Weeks

Now
34 °F

Mostly cloudy.


Feels Like: 25 °F
Forecast: 29 / 37 °F
Wind: 13 mph from North

Location: Mesquite Metro Airport

Current Time: Dec 8, 2016 at 10:18:59 am

Latest Report: Dec 8, 2016 at 8:50 am


Visibility: 10 mi

Pressure: 30.61 "Hg

Humidity: 70%

Dew Point: 25 °F

Location of GarlandLocation

Past Weather in Garland — Graph

°F

Garland Temperature Yesterday

Maximum temperature yesterday: 52 °F (at 1:50 pm)
Minimum temperature yesterday: 39 °F (at 6:50 am)
Average temperature yesterday: 45 °F

High & Low Weather Summary for the Past Weeks

 TemperatureHumidityPressure
High73 °F (Nov 29, 1:50 pm)100% (Nov 24, 5:15 am)30.61 "Hg (Nov 24, 5:15 am)
Low32 °F (Dec 1, 6:50 am)19% (Dec 1, 1:50 pm)29.46 "Hg (Nov 28, 2:45 pm)
Average50 °F76%30.04 "Hg
* Reported Nov 23 8:50 am — Dec 8 8:50 am, Garland, Weather by CustomWeather, © 2016

Note: Actual official high and low records may vary slightly from our data, if they occured in-between our weather recording intervals... More about our weather records

Advertising

Garland Weather History for the Previous 24 Hours

Scroll right to see more
 ConditionsComfort  
Time TempWeatherWind HumidityBarometerVisibility
8:50 am
Thu, Dec 8
34 °FMostly cloudy.13 mph70%30.61 "Hg10 mi
7:50 am34 °FMostly cloudy.20 mph75%30.57 "Hg10 mi
6:50 am34 °FPassing clouds.16 mph75%30.54 "Hg10 mi
6:15 am35 °FPassing clouds.10 mph77%30.53 "Hg10 mi
5:55 am35 °FPassing clouds.16 mph74%30.52 "Hg10 mi
5:35 am36 °FClear.12 mph75%30.51 "Hg10 mi
5:15 am36 °FPassing clouds.15 mph71%30.49 "Hg10 mi
4:55 am36 °FOvercast.15 mph69%30.48 "Hg10 mi
4:35 am37 °FOvercast.22 mph66%30.46 "Hg10 mi
4:15 am37 °FPassing clouds.20 mph64%30.45 "Hg10 mi
3:55 am37 °FClear.14 mph64%30.45 "Hg10 mi
3:35 am38 °FClear.21 mph65%30.45 "Hg10 mi
3:15 am38 °FPassing clouds.18 mph69%30.44 "Hg10 mi
2:55 am38 °FPartly cloudy.20 mph68%30.43 "Hg10 mi
2:15 am38 °FMostly cloudy.18 mph70%30.42 "Hg10 mi
1:55 am38 °FMostly cloudy.21 mph74%30.42 "Hg10 mi
1:35 am39 °FOvercast.17 mph77%30.42 "Hg10 mi
1:15 am40 °FOvercast.18 mph79%30.40 "Hg10 mi
12:55 am40 °FOvercast.20 mph82%30.38 "Hg10 mi
12:35 am40 °FOvercast.15 mph85%30.37 "Hg10 mi
12:15 am41 °FOvercast.12 mph85%30.37 "Hg10 mi
11:55 pm
Wed, Dec 7
41 °FOvercast.13 mph86%30.36 "Hg10 mi
11:15 pm42 °FOvercast.13 mph82%30.35 "Hg10 mi
10:55 pm43 °FOvercast.16 mph84%30.33 "Hg10 mi
10:35 pm43 °FOvercast.18 mph84%30.32 "Hg10 mi
10:15 pm44 °FOvercast.15 mph86%30.30 "Hg10 mi
9:55 pm45 °FMostly cloudy.12 mph87%30.30 "Hg10 mi
9:35 pm46 °FMostly cloudy.8 mph86%30.29 "Hg10 mi
9:15 pm47 °FMostly cloudy.14 mph85%30.28 "Hg10 mi
8:55 pm47 °FOvercast.6 mph83%30.26 "Hg10 mi
6:50 pm48 °FOvercast.5 mph82%30.20 "Hg10 mi
5:50 pm50 °FOvercast.6 mph76%30.16 "Hg10 mi
4:50 pm50 °FOvercast.7 mph76%30.12 "Hg10 mi
3:50 pm52 °FOvercast.3 mph72%30.11 "Hg10 mi
2:50 pm52 °FOvercast.3 mph72%30.09 "Hg10 mi
1:50 pm52 °FOvercast.No wind72%30.09 "Hg10 mi
12:50 pm50 °FOvercast.No wind71%30.09 "Hg10 mi
11:50 am50 °FPartly sunny.No wind76%30.12 "Hg10 mi
10:50 am48 °FPartly sunny.No wind76%30.13 "Hg10 mi
Weather by CustomWeather, © 2016

See weather overviewHow to use our weather pages